TimeCST,TemperatureF,Dew PointF,Humidity,Sea Level PressureIn,VisibilityMPH,Wind Direction,Wind SpeedMPH,Gust SpeedMPH,PrecipitationIn,Events,Conditions,WindDirDegrees,DateUTC
12:36 AM,26.6,21.2,80,30.25,10.0,NW,6.9,-,N/A,,Mostly Cloudy,320,2012-11-28 06:36:00
12:53 AM,26.1,21.0,81,30.29,10.0,NW,11.5,-,N/A,,Overcast,320,2012-11-28 06:53:00
1:53 AM,27.0,21.0,78,30.30,10.0,NNW,8.1,-,N/A,,Overcast,330,2012-11-28 07:53:00
2:53 AM,27.0,19.9,75,30.31,10.0,NW,9.2,-,N/A,,Overcast,320,2012-11-28 08:53:00
3:53 AM,26.1,19.0,75,30.31,10.0,NNW,10.4,-,N/A,,Overcast,330,2012-11-28 09:53:00
4:53 AM,26.1,19.0,75,30.34,10.0,NW,11.5,-,N/A,,Overcast,320,2012-11-28 10:53:00
5:53 AM,27.0,19.0,72,30.34,10.0,NW,8.1,-,N/A,,Overcast,310,2012-11-28 11:53:00
6:53 AM,27.0,19.9,75,30.36,10.0,Variable,6.9,-,N/A,,Overcast,0,2012-11-28 12:53:00
7:53 AM,27.0,19.9,75,30.36,10.0,Calm,Calm,-,N/A,,Overcast,0,2012-11-28 13:53:00
8:53 AM,28.0,19.9,72,30.36,10.0,SW,3.5,-,N/A,,Overcast,220,2012-11-28 14:53:00
9:53 AM,28.9,19.9,69,30.35,10.0,SW,4.6,-,N/A,,Mostly Cloudy,230,2012-11-28 15:53:00
10:08 AM,28.4,19.4,69,30.32,10.0,SW,3.5,-,N/A,,Scattered Clouds,230,2012-11-28 16:08:00
10:53 AM,30.9,21.0,67,30.35,10.0,SSW,8.1,-,N/A,,Scattered Clouds,210,2012-11-28 16:53:00
11:53 AM,33.1,21.0,61,30.33,10.0,West,5.8,-,N/A,,Clear,270,2012-11-28 17:53:00
12:53 PM,34.0,21.0,59,30.30,10.0,SW,5.8,-,N/A,,Clear,220,2012-11-28 18:53:00
1:53 PM,35.1,21.0,57,30.27,10.0,SW,8.1,-,N/A,,Clear,230,2012-11-28 19:53:00
2:53 PM,36.0,21.9,57,30.22,10.0,SSW,8.1,-,N/A,,Clear,200,2012-11-28 20:53:00
3:53 PM,35.1,21.9,59,30.18,10.0,South,6.9,-,N/A,,Clear,180,2012-11-28 21:53:00
4:53 PM,32.0,21.9,66,30.18,10.0,South,8.1,-,N/A,,Clear,190,2012-11-28 22:53:00
5:53 PM,32.0,21.9,66,30.17,10.0,South,6.9,-,N/A,,Clear,190,2012-11-28 23:53:00
6:53 PM,32.0,21.9,66,30.17,10.0,South,5.8,-,N/A,,Clear,170,2012-11-29 00:53:00
7:53 PM,30.9,23.0,72,30.15,10.0,SE,6.9,-,N/A,,Clear,140,2012-11-29 01:53:00
8:53 PM,30.9,23.0,72,30.14,10.0,South,4.6,-,N/A,,Clear,170,2012-11-29 02:53:00
9:53 PM,33.1,23.0,66,30.13,10.0,South,6.9,-,N/A,,Clear,180,2012-11-29 03:53:00
10:53 PM,32.0,23.0,69,30.12,10.0,SSW,4.6,-,N/A,,Partly Cloudy,210,2012-11-29 04:53:00
11:53 PM,34.0,23.0,64,30.10,10.0,South,8.1,-,N/A,,Clear,190,2012-11-29 05:53:00